Martin City, MT (59926)

11:05 PM MDT on April 25, 2017 (GMT -0600)
Glacier Hills West | | Change Station

Elev 3450 ft 48.38 °N, 114.04 °W | Updated 12 seconds ago

Mostly Cloudy
Mostly Cloudy
37.2 °F
Feels Like 37 °F
N
0.0
Wind Variable Wind from WSW
Gusts 0.0 mph

Today
High -- | Low -- °F
--% Chance of Precip.
Yesterday
High -- | Low -- °F
Precip. -- in
Pressure 29.89 in
Visibility 10.0 miles
Clouds Overcast 1300 ft
Windchill 37 °F
Dew Point 37 °F
Humidity 99%
Rainfall 0.25 in
Snow Depth Not available.
6:26 AM 8:42 PM
Waning Crescent, 0% visible
METAR KCTB 260456Z AUTO 10004KT 10SM OVC013 02/01 A2983 RMK AO2 SLP122 T00220006
Pressure 29.89 in
Visibility 10.0 miles
Clouds Overcast 1300 ft
Windchill 37 °F
Dew Point 37 °F
Humidity 99%
Rainfall 0.25 in
Snow Depth Not available.
6:26 AM 8:42 PM
Waning Crescent, 0% visible
METAR KCTB 260456Z AUTO 10004KT 10SM OVC013 02/01 A2983 RMK AO2 SLP122 T00220006

Get Severe Weather Alerts

Thanks for signing up!

Be on the lookout for a verification email in your inbox.

You'll start receiving the daily forecast at 8 AM.

×

10-Day Weather Forecast

Almanac

Astronomy

Apr. 25, 2017 Rise Set
Actual Time
Civil Twilight
Nautical Twilight
Astronomical Twilight
Moon
Length of Visible Light
Length of Day
Tomorrow will be .
, % of the Moon is Illuminated

Today's Extremes

State Highs State Lows

Community

WunderPhotos

WunderBlog® & News

Nearby

Air Quality

  Air Quality AQ Index Pollutant
Not available.

Snow Depth

Station Depth Elevation

Earthquake Activity

City Distance Mag. Time & Date
Minimum magnitude displayed is 2.5.

Coastal Water Temperatures

Place Temperature

Stations

Nearby Weather Stations

Station Location Temp. Windchill Dew Point Humidity Wind Precip. Elev Updated Type
                   

Watches & Warnings

There are currently no watches in effect.